EW4271 Weather Reports


time (UTC)temp
F
wind
direction
speed
knots
gust
knots
rain 1hr
in
rain 24hr
in
rain mn
in
humidity
%
barometer
mb
20260903125103 57 286 0.0 0.0 0.00 0.00 0.00 70 1026.0
20260903124617 57 261 0.0 0.0 0.00 0.00 0.00 68 1026.0
20260903124111 57 274 0.0 0.0 0.00 0.00 0.00 69 1026.0
20260903123606 57 274 0.0 0.0 0.00 0.00 0.00 69 1026.0
20260903123121 57 271 0.0 0.0 0.00 0.00 0.00 70 1026.0
20260903122614 57 271 0.0 0.0 0.00 0.00 0.00 68 1025.9
20260903122111 57 340 0.0 0.0 0.00 0.00 0.00 69 1025.9
20260903121605 57 340 0.0 0.0 0.00 0.00 0.00 70 1025.9
20260903121119 57 340 0.0 0.0 0.00 0.00 0.00 69 1025.7
20260903120634 57 340 0.0 0.0 0.00 0.00 0.00 69 1025.9
20260903120128 57 340 0.0 0.0 0.00 0.00 0.00 69 1025.8
20260903115621 57 257 0.0 0.0 0.00 0.00 0.00 69 1025.7
20260903115115 57 257 0.0 0.0 0.00 0.00 0.00 70 1025.7
20260903114610 57 257 0.0 0.0 0.00 0.00 0.00 69 1025.8
20260903114108 57 257 0.0 1.7 0.00 0.00 0.00 68 1025.8
20260903113602 56 257 0.9 1.7 0.00 0.00 0.00 68 1025.7
20260903113116 57 293 0.0 0.0 0.00 0.00 0.00 70 1025.7
20260903112610 57 271 0.0 0.0 0.00 0.00 0.00 67 1025.7
20260903112125 57 271 0.0 0.0 0.00 0.00 0.00 70 1025.8
20260903111617 57 271 0.0 0.0 0.00 0.00 0.00 68 1025.7
20260903111113 56 271 0.0 0.0 0.00 0.00 0.00 68 1025.7
20260903110606 56 271 0.0 0.0 0.00 0.00 0.00 69 1025.6
20260903110105 57 271 0.0 0.0 0.00 0.00 0.00 69 1025.6
20260903105619 57 271 0.0 0.0 0.00 0.00 0.00 67 1025.6
20260903105113 56 271 0.0 0.0 0.00 0.00 0.00 67 1025.5
20260903104607 56 271 0.0 0.0 0.00 0.00 0.00 68 1025.6
20260903104101 56 271 0.0 0.0 0.00 0.00 0.00 69 1025.6
20260903103617 56 271 0.0 0.0 0.00 0.00 0.00 69 1025.5
20260903103110 56 271 0.0 0.0 0.00 0.00 0.00 69 1025.5
20260903102605 56 271 0.0 0.0 0.00 0.00 0.00 67 1025.5
20260903102103 56 271 0.0 0.0 0.00 0.00 0.00 67 1025.4
20260903101616 56 271 0.0 0.0 0.00 0.00 0.00 68 1025.4
20260903101110 56 271 0.0 0.0 0.00 0.00 0.00 67 1025.3
20260903100604 56 271 0.0 0.0 0.00 0.00 0.00 66 1025.3
20260903100118 56 271 0.0 0.0 0.00 0.00 0.00 65 1025.3
20260903095613 56 271 0.0 0.0 0.00 0.00 0.00 65 1025.3
20260903095106 56 271 0.0 0.0 0.00 0.00 0.00 64 1025.2
20260903094603 56 271 0.0 0.0 0.00 0.00 0.00 62 1025.3
20260903094117 56 271 0.0 0.0 0.00 0.00 0.00 63 1025.4
20260903093610 56 271 0.0 0.0 0.00 0.00 0.00 61 1025.3
20260903093103 57 271 0.0 0.0 0.00 0.00 0.00 61 1025.4
20260903092618 57 271 0.0 0.0 0.00 0.00 0.00 61 1025.3
20260903092111 57 271 0.0 0.0 0.00 0.00 0.00 58 1025.4
20260903091605 57 271 0.0 0.0 0.00 0.00 0.00 58 1025.4
20260903091119 57 271 0.0 0.0 0.00 0.00 0.00 62 1025.4
20260903090614 58 271 0.0 0.9 0.00 0.00 0.00 58 1025.5
20260903090110 58 271 0.0 1.7 0.00 0.00 0.00 59 1025.5
20260903085604 58 271 0.9 1.7 0.00 0.00 0.00 58 1025.5
20260903085118 58 271 0.0 1.7 0.00 0.00 0.00 58 1025.5
20260903084612 58 271 0.9 1.7 0.00 0.00 0.00 58 1025.5
20260903084126 58 271 0.0 0.0 0.00 0.00 0.00 58 1025.5
20260903083619 59 271 0.0 0.0 0.00 0.00 0.00 59 1025.5
20260903083113 59 260 0.0 2.6 0.00 0.00 0.00 55 1025.5
20260903082606 59 260 0.9 2.6 0.00 0.00 0.00 56 1025.5
20260903082105 59 47 0.9 2.6 0.00 0.00 0.00 57 1025.5
20260903081619 59 305 0.0 0.0 0.00 0.00 0.00 53 1025.6
20260903081113 59 305 0.0 0.0 0.00 0.00 0.00 54 1025.6
20260903080606 59 305 0.0 0.0 0.00 0.00 0.00 56 1025.6
20260903080141 59 305 0.0 0.0 0.00 0.00 0.00 54 1025.6
20260903075614 60 305 0.0 0.0 0.00 0.00 0.00 52 1025.7
20260903075107 60 305 0.0 0.0 0.00 0.00 0.00 55 1025.7
20260903074622 60 305 0.0 2.6 0.00 0.00 0.00 53 1025.7
20260903074115 60 20 0.0 2.6 0.00 0.00 0.00 53 1025.7
20260903073614 60 288 0.0 0.0 0.00 0.00 0.00 53 1025.7
20260903073127 60 288 0.0 0.0 0.00 0.00 0.00 53 1025.7
20260903072620 61 288 0.0 0.0 0.00 0.00 0.00 51 1025.6
20260903072114 61 288 0.0 0.0 0.00 0.00 0.00 52 1025.7
20260903071628 62 288 0.0 0.0 0.00 0.00 0.00 51 1025.7
20260903071101 62 288 0.0 0.0 0.00 0.00 0.00 48 1025.6
20260903070636 63 288 0.0 0.0 0.00 0.00 0.00 49 1025.5
20260903070109 64 288 0.0 0.0 0.00 0.00 0.00 47 1025.5
20260903065603 65 288 0.0 0.0 0.00 0.00 0.00 45 1025.5
20260903065117 65 288 0.0 0.9 0.00 0.00 0.00 40 1025.6
20260903064634 66 288 0.0 1.7 0.00 0.00 0.00 42 1025.5
20260903064107 66 288 0.9 2.6 0.00 0.00 0.00 39 1025.6
20260903063620 67 148 0.0 2.6 0.00 0.00 0.00 38 1025.5
20260903063114 67 148 0.0 5.2 0.00 0.00 0.00 38 1025.5
20260903062608 67 156 3.5 5.2 0.00 0.00 0.00 36 1025.5
20260903062102 68 147 1.7 3.5 0.00 0.00 0.00 37 1025.4
20260903061616 68 82 0.0 0.0 0.00 0.00 0.00 37 1025.3
20260903061111 68 119 0.0 0.0 0.00 0.00 0.00 37 1025.3
20260903060608 68 119 0.0 0.9 0.00 0.00 0.00 36 1025.3
20260903055635 68 233 0.9 2.6 0.00 0.00 0.00 37 1025.2
20260903055129 68 278 0.9 1.7 0.00 0.00 0.00 38 1025.2
20260903054602 68 99 0.9 4.3 0.00 0.00 0.00 37 1025.2
20260903054115 69 74 1.7 4.3 0.00 0.00 0.00 37 1025.2
20260903053629 69 24 0.9 2.6 0.00 0.00 0.00 37 1025.2
20260903053102 69 24 0.9 2.6 0.00 0.00 0.00 34 1025.2
20260903052616 69 56 0.0 2.6 0.00 0.00 0.00 35 1025.3
20260903052114 69 31 0.9 2.6 0.00 0.00 0.00 35 1025.3
20260903051628 69 11 0.9 2.6 0.00 0.00 0.00 34 1025.3
20260903051102 69 342 0.9 3.5 0.00 0.00 0.00 35 1025.3
20260903050616 69 22 1.7 3.5 0.00 0.00 0.00 36 1025.3
20260903050108 69 27 0.9 1.7 0.00 0.00 0.00 34 1025.4
20260903045602 69 28 0.9 1.7 0.00 0.00 0.00 36 1025.4
20260903045116 69 291 0.9 1.7 0.00 0.00 0.00 34 1025.4
20260903044610 69 292 0.0 2.6 0.00 0.00 0.00 36 1025.4
20260903044108 69 13 1.7 2.6 0.00 0.00 0.00 34 1025.4
20260903043603 69 34 0.9 1.7 0.00 0.00 0.00 35 1025.5
20260903043118 69 34 0.0 2.6 0.00 0.00 0.00 36 1025.5
20260903042611 69 34 1.7 2.6 0.00 0.00 0.00 36 1025.5
20260903042105 69 38 0.0 4.3 0.00 0.00 0.00 36 1025.5
20260903041639 68 38 0.9 4.3 0.00 0.00 0.00 35 1025.4
20260903041111 68 42 0.9 2.6 0.00 0.00 0.00 37 1025.5
20260903040605 68 315 0.9 2.6 0.00 0.00 0.00 37 1025.6
20260903040139 68 286 0.9 2.6 0.00 0.00 0.00 39 1025.5
20260903035632 67 286 0.9 2.6 0.00 0.00 0.00 38 1025.5
20260903035109 67 296 0.9 1.7 0.00 0.00 0.00 37 1025.6
20260903034602 66 23 0.9 2.6 0.00 0.00 0.00 39 1025.5
20260903034116 66 26 0.9 2.6 0.00 0.00 0.00 40 1025.4
20260903033609 66 298 0.9 2.6 0.00 0.00 0.00 40 1025.5
20260903033104 66 236 0.9 2.6 0.00 0.00 0.00 41 1025.5
20260903032617 66 236 0.9 1.7 0.00 0.00 0.00 43 1025.5
20260903032111 66 236 0.0 0.0 0.00 0.00 0.00 41 1025.5
20260903031605 65 236 0.0 0.0 0.00 0.00 0.00 42 1025.4
20260903031103 65 236 0.0 0.0 0.00 0.00 0.00 43 1025.5
20260903030618 65 236 0.0 0.0 0.00 0.00 0.00 42 1025.4
20260903030110 65 236 0.0 0.0 0.00 0.00 0.00 42 1025.4
20260903025605 65 236 0.0 0.0 0.00 0.00 0.00 47 1025.3
20260903025118 65 236 0.0 0.0 0.00 0.00 0.00 46 1025.2
20260903024612 66 236 0.0 0.0 0.00 0.00 0.00 45 1025.2
20260903024105 66 236 0.0 0.0 0.00 0.00 0.00 44 1025.1
20260903023603 66 236 0.0 0.0 0.00 0.00 0.00 39 1025.0
20260903023118 66 236 0.0 0.0 0.00 0.00 0.00 39 1025.0
20260903022611 66 236 0.0 0.0 0.00 0.00 0.00 41 1024.9
20260903022106 67 236 0.0 0.0 0.00 0.00 0.00 39 1024.8
20260903021640 67 236 0.0 0.0 0.00 0.00 0.00 39 1024.8
20260903021135 67 236 0.0 0.0 0.00 0.00 0.00 38 1024.8
20260903020609 67 236 0.0 0.0 0.00 0.00 0.00 39 1024.8
20260903020104 68 236 0.0 0.0 0.00 0.00 0.00 38 1024.7
20260903015618 68 236 0.0 0.0 0.00 0.00 0.00 38 1024.7
20260903015132 69 236 0.0 0.0 0.00 0.00 0.00 36 1024.6
20260903014609 70 236 0.0 0.0 0.00 0.00 0.00 36 1024.6
20260903014123 70 236 0.0 0.0 0.00 0.00 0.00 35 1024.6
20260903013635 71 236 0.0 0.0 0.00 0.00 0.00 36 1024.5
20260903013108 72 236 0.0 0.0 0.00 0.00 0.00 36 1024.5
20260903012602 73 236 0.0 0.0 0.00 0.00 0.00 33 1024.5
20260903012115 73 236 0.0 0.0 0.00 0.00 0.00 35 1024.6
20260903011609 74 236 0.0 0.0 0.00 0.00 0.00 35 1024.5
20260903011104 75 236 0.0 0.0 0.00 0.00 0.00 31 1024.4
20260903010618 75 236 0.0 0.0 0.00 0.00 0.00 30 1024.5
20260903010116 76 236 0.0 0.0 0.00 0.00 0.00 30 1024.6
20260903005610 76 236 0.0 0.0 0.00 0.00 0.00 29 1024.5
20260903005123 76 236 0.0 2.6 0.00 0.00 0.00 27 1024.5
20260903004616 77 236 0.9 2.6 0.00 0.00 0.00 27 1024.5
20260903004110 77 44 0.0 0.9 0.00 0.00 0.00 27 1024.5
20260903003605 78 44 0.0 1.7 0.00 0.00 0.00 27 1024.6
20260903003138 78 107 0.9 1.7 0.00 0.00 0.00 25 1024.5
20260903002611 79 219 0.0 1.7 0.00 0.00 0.00 26 1024.6
20260903002104 79 219 0.9 4.3 0.00 0.00 0.00 23 1024.5
20260903001603 80 51 0.9 4.3 0.00 0.00 0.00 23 1024.6
20260903001116 81 325 0.9 4.3 0.00 0.00 0.00 23 1024.5
20260903000610 81 355 0.9 4.3 0.00 0.00 0.00 23 1024.6
20260902235618 80 193 0.9 2.6 0.00 0.00 0.00 23 1024.6
20260902235111 81 314 0.9 1.7 0.00 0.00 0.00 24 1024.7
20260902234604 81 160 0.0 3.5 0.00 0.00 0.00 25 1024.6
20260902234119 81 160 0.9 3.5 0.00 0.00 0.00 23 1024.7
20260902233616 81 302 1.7 6.1 0.00 0.00 0.00 24 1024.7
20260902233110 80 226 1.7 6.1 0.00 0.00 0.00 24 1024.8
20260902232604 81 350 2.6 7.0 0.00 0.00 0.00 24 1024.8
20260902232117 81 222 0.9 7.0 0.00 0.00 0.00 24 1024.9
20260902231612 81 238 0.9 2.6 0.00 0.00 0.00 24 1024.8
20260902231104 80 42 0.9 2.6 0.00 0.00 0.00 27 1024.8
20260902230617 80 74 1.7 2.6 0.00 0.00 0.00 25 1024.9
20260902230111 80 331 1.7 2.6 0.00 0.00 0.00 24 1024.9
20260902225609 80 155 0.9 3.5 0.00 0.00 0.00 24 1024.9
20260902225103 81 332 1.7 4.3 0.00 0.00 0.00 24 1025.0
20260902224616 81 5 1.7 4.3 0.00 0.00 0.00 25 1025.1
20260902224130 81 254 1.7 4.3 0.00 0.00 0.00 24 1025.0
20260902223624 80 153 0.9 4.3 0.00 0.00 0.00 26 1025.0
20260902223117 80 242 1.7 4.3 0.00 0.00 0.00 25 1025.0
20260902222611 79 26 0.9 2.6 0.00 0.00 0.00 26 1025.1
20260902222105 79 338 0.9 5.2 0.00 0.00 0.00 26 1025.2
20260902221618 80 79 1.7 5.2 0.00 0.00 0.00 25 1025.3
20260902221116 81 297 0.9 7.0 0.00 0.00 0.00 25 1025.3
20260902220610 82 351 1.7 7.0 0.00 0.00 0.00 25 1025.2
20260902220104 83 51 3.5 7.0 0.00 0.00 0.00 23 1025.1
20260902215638 84 235 1.7 3.5 0.00 0.00 0.00 23 1025.1
20260902215110 84 145 1.7 3.5 0.00 0.00 0.00 22 1025.2
20260902214604 84 265 2.6 5.2 0.00 0.00 0.00 22 1025.3
20260902214117 83 191 1.7 5.2 0.00 0.00 0.00 24 1025.3
20260902213632 83 214 1.7 4.3 0.00 0.00 0.00 24 1025.4
20260902213104 82 312 0.9 6.1 0.00 0.01 0.00 23 1025.4
20260902212638 82 306 1.7 6.1 0.00 0.01 0.00 24 1025.5
20260902212115 82 34 1.7 4.3 0.00 0.01 0.00 24 1025.6
20260902211607 82 355 1.7 3.5 0.00 0.01 0.00 25 1025.5
20260902211102 82 216 1.7 6.1 0.00 0.01 0.00 25 1025.5
20260902210616 82 173 2.6 6.1 0.00 0.01 0.00 24 1025.7
20260902210110 82 92 1.7 7.0 0.00 0.01 0.00 24 1025.8
20260902205624 81 327 2.6 7.0 0.00 0.01 0.00 23 1025.8
20260902205118 81 273 1.7 7.8 0.00 0.01 0.00 25 1025.8
20260902204613 80 26 2.6 7.8 0.00 0.01 0.00 26 1026.0
20260902204109 79 315 2.6 6.1 0.00 0.01 0.00 25 1026.0
20260902203604 78 11 0.0 0.0 0.00 0.01 0.00 26 1026.1
20260902203118 78 26 0.0 1.7 0.00 0.02 0.00 30 1026.2
20260902202612 79 161 0.9 7.0 0.00 0.02 0.00 34 1026.2
20260902202106 79 141 3.5 7.0 0.00 0.02 0.00 32 1026.2
20260902201639 79 277 1.7 5.2 0.00 0.02 0.00 34 1026.4
20260902201114 78 355 0.9 3.5 0.00 0.02 0.00 37 1026.4
20260902200607 78 78 1.7 6.1 0.00 0.02 0.00 36 1026.4
20260902200106 78 212 0.0 6.1 0.00 0.02 0.00 36 1026.4
20260902195620 77 143 1.7 3.5 0.00 0.02 0.00 39 1026.6
20260902195114 76 221 1.7 2.6 0.00 0.02 0.00 37 1026.8
20260902194607 76 136 0.0 3.5 0.00 0.02 0.00 40 1026.9
20260902194121 76 134 1.7 3.5 0.00 0.02 0.00 38 1026.9
20260902193615 76 139 1.7 4.3 0.00 0.02 0.00 40 1026.9
20260902193109 76 141 1.7 6.1 0.00 0.02 0.00 40 1026.9
20260902192604 76 136 2.6 7.8 0.00 0.02 0.00 39 1027.1
20260902192103 76 155 4.3 7.8 0.00 0.02 0.00 39 1027.1
20260902191616 76 143 3.5 6.1 0.00 0.02 0.00 40 1027.1
20260902191110 77 213 1.7 2.6 0.00 0.02 0.00 40 1027.3
20260902190624 76 128 1.7 4.3 0.00 0.02 0.00 41 1027.4
20260902190117 76 136 1.7 4.3 0.00 0.02 0.00 42 1027.5
20260902185611 75 110 1.7 4.3 0.00 0.02 0.00 42 1027.6
20260902185105 74 144 1.7 3.5 0.00 0.02 0.00 46 1027.7
20260902184619 73 44 1.7 3.5 0.00 0.02 0.00 44 1027.7
20260902184117 73 152 0.0 2.6 0.00 0.02 0.00 47 1027.9
20260902183611 73 44 0.9 3.5 0.00 0.02 0.00 46 1027.8
20260902183105 74 44 1.7 4.3 0.00 0.02 0.00 44 1028.0
20260902182619 74 55 2.6 4.3 0.00 0.02 0.00 43 1028.1
20260902182113 75 46 1.7 4.3 0.00 0.02 0.00 43 1028.1
20260902181607 75 41 1.7 5.2 0.00 0.02 0.00 44 1028.2
20260902181120 75 146 2.6 5.2 0.00 0.02 0.00 45 1028.2
20260902180614 76 32 2.6 4.3 0.00 0.02 0.00 42 1028.2
20260902180112 76 84 0.9 4.3 0.00 0.02 0.00 45 1028.2
20260902175626 76 140 1.7 4.3 0.00 0.02 0.00 46 1028.2
20260902175120 75 97 1.7 4.3 0.00 0.02 0.00 45 1028.3
20260902174614 74 157 3.5 5.2 0.00 0.02 0.00 46 1028.3
20260902174107 74 145 0.0 6.1 0.00 0.02 0.00 46 1028.5
20260902173601 74 157 2.6 6.1 0.00 0.02 0.00 45 1028.5
20260902173115 74 97 0.9 6.1 0.00 0.02 0.00 47 1028.5
20260902172629 73 117 2.6 7.0 0.00 0.02 0.00 48 1028.5
20260902172107 73 163 3.5 7.0 0.00 0.02 0.00 47 1028.6
20260902171640 73 192 1.7 7.0 0.00 0.02 0.00 47 1028.6
20260902171113 73 120 1.7 7.0 0.00 0.02 0.00 50 1028.7
20260902170607 73 140 2.6 7.0 0.00 0.02 0.00 49 1028.7
20260902165615 73 71 1.7 4.3 0.00 0.02 0.00 52 1028.8
20260902165109 73 157 1.7 6.1 0.00 0.02 0.00 50 1028.8
20260902164622 73 53 0.9 7.0 0.00 0.02 0.00 52 1028.8
20260902164116 72 158 2.6 7.0 0.00 0.02 0.00 53 1028.7
20260902163614 72 132 1.7 5.2 0.00 0.02 0.00 55 1028.7
20260902163108 71 139 0.9 6.1 0.00 0.02 0.00 55 1028.6
20260902162621 71 163 1.7 6.1 0.00 0.02 0.00 58 1028.6
20260902162116 70 56 0.9 4.3 0.00 0.02 0.00 57 1028.6
20260902161630 70 142 0.9 2.6 0.00 0.02 0.00 58 1028.6
20260902161122 69 56 1.7 2.6 0.00 0.02 0.00 57 1028.6
20260902160616 69 104 0.0 2.6 0.00 0.02 0.00 57 1028.7
20260902160110 70 105 0.0 5.2 0.00 0.02 0.00 58 1028.6
20260902155603 70 148 2.6 5.2 0.00 0.02 0.00 54 1028.5
20260902155121 70 162 1.7 4.3 0.00 0.02 0.00 58 1028.6
20260902154615 69 153 1.7 4.3 0.00 0.02 0.00 58 1028.5
20260902154108 68 157 1.7 3.5 0.00 0.02 0.00 60 1028.5
20260902153603 67 163 1.7 3.5 0.00 0.02 0.00 61 1028.5
20260902153136 67 131 0.9 2.6 0.00 0.02 0.00 62 1028.6
20260902152609 66 55 0.0 1.7 0.00 0.02 0.00 64 1028.6
20260902152103 66 45 0.0 1.7 0.00 0.02 0.00 65 1028.5
20260902151617 65 45 0.0 3.5 0.00 0.02 0.00 66 1028.4
20260902151109 65 45 2.6 3.5 0.00 0.02 0.00 64 1028.5
20260902150606 65 140 0.0 0.0 0.00 0.02 0.00 68 1028.4
20260902145635 64 140 0.0 0.0 0.00 0.02 0.00 65 1028.4
20260902145107 64 143 0.0 0.0 0.00 0.02 0.00 69 1028.4
20260902144601 64 143 0.0 0.0 0.00 0.02 0.00 67 1028.3
20260902144116 63 143 0.0 0.0 0.00 0.02 0.00 72 1028.3
20260902143609 61 143 0.0 0.0 0.00 0.02 0.00 74 1028.4
20260902143104 60 52 0.0 0.0 0.00 0.02 0.00 79 1028.3
20260902142616 59 52 0.0 0.0 0.00 0.02 0.00 81 1028.3
20260902142114 58 52 0.0 0.0 0.00 0.02 0.00 81 1028.3
20260902141608 56 52 0.0 0.0 0.00 0.02 0.00 83 1028.2
20260902141102 55 232 0.0 0.0 0.00 0.02 0.00 84 1028.1
20260902140616 55 55 0.0 0.0 0.00 0.02 0.00 87 1028.0
20260902140110 54 55 0.0 0.0 0.00 0.02 0.00 88 1028.1
20260902135603 53 55 0.0 0.0 0.00 0.02 0.00 88 1027.9
20260902135117 53 55 0.0 0.0 0.00 0.02 0.00 88 1027.8
20260902134611 52 55 0.0 0.0 0.00 0.02 0.00 88 1027.9
20260902134110 52 55 0.0 0.0 0.00 0.02 0.00 88 1027.8
20260902133603 52 55 0.0 0.0 0.00 0.02 0.00 88 1027.7
20260902133117 51 55 0.0 0.0 0.00 0.02 0.00 88 1027.6
20260902132611 51 55 0.0 0.0 0.00 0.02 0.00 87 1027.6
20260902132104 51 55 0.0 0.0 0.00 0.02 0.00 87 1027.6
20260902131618 51 55 0.0 0.0 0.00 0.02 0.00 87 1027.5
20260902131112 51 55 0.0 0.0 0.00 0.02 0.00 87 1027.5
20260902130610 51 55 0.0 0.0 0.00 0.02 0.00 87 1027.5
20260902125616 51 55 0.0 0.0 0.00 0.02 0.00 87 1027.6